Miscellaneous Local Product
Issued by NWS Hastings, NE

Home | Current Version | Previous Version | Text Only | Print | Product List | Glossary On
Versions: 1 2 3 4 5 6 7 8 9 10 11 12 13 14 15 16 17 18 19 20 21 22 23 24 25 26 27 28 29 30 31 32 33 34 35 36 37 38 39 40 41 42 43 44 45 46 47 48 49 50
000
AXUS43 KGID 231402
MISGRI

GID CWA HOURLY WEATHER ROUNDUP
NATIONAL WEATHER SERVICE HASTINGS NE
900 AM CDT THU OCT 23 2014

NOTE: "FAIR" INDICATES FEW OR NO CLOUDS BELOW 12,000 FEET WITH NO
SIGNIFICANT WEATHER AND/OR OBSTRUCTIONS TO VISIBILITY.

...SOUTH CENTRAL NEBRASKA...

CITY           SKY/WX    TMP DP  RH WIND       PRES   REMARKS
GRAND ISLAND   FOG       46  44  93 W3        30.09R VSB<1/4
HASTINGS       FOG       50  49  96 CALM      30.09R VSB<1/4
KEARNEY        CLOUDY    46  45  93 W3        30.10R VSB<1/4
ORD            FOG       39  39 100 CALM      30.07R VSB<1/4
YORK           FOG       54  54 100 CALM      30.08R VSB<1/4
AURORA         FOG       49  49 100 CALM      30.08R VSB<1/4
LEXINGTON      FOG       47  47  97 W5        30.10R VSB<1/4
HOLDREGE       FOG       45  44  97 CALM      30.09R VSB<1/4
HEBRON         FOG       55  54  94 CALM      30.08R VSB 1/4

...NEBRASKA PANHANDLE...

CITY           SKY/WX    TMP DP  RH WIND       PRES   REMARKS
CHADRON        CLEAR     34  25  69 W3        30.04S
ALLIANCE       PTCLDY    31  27  85 SW7       30.08S WCI  24
SCOTTSBLUFF    PTCLDY    35  31  85 CALM      30.09F
SIDNEY         CLEAR     38  33  82 W6        30.12S WCI  33

...WESTERN AND NORTH CENTRAL NEBRASKA...

CITY           SKY/WX    TMP DP  RH WIND       PRES   REMARKS
VALENTINE      CLEAR     33  32  96 SW8       30.03S WCI  26
AINSWORTH      CLEAR     43  43 100 SW6       30.04R
ONEILL           N/A     42  42 100 SW5       30.06R FOG
BROKEN BOW     FOG       41  40  96 CALM      30.08R VSB 1/4
IMPERIAL       CLEAR     43  34  70 W3        30.12R
NORTH PLATTE   MOCLDY    38  38 100 CALM      30.10R
MCCOOK         FOG       46  46 100 SW5       30.12R VSB<1/4

...EASTERN NEBRASKA...

CITY           SKY/WX    TMP DP  RH WIND       PRES   REMARKS
NORFOLK        SUNNY     44  43  96 CALM      30.05R
SO SIOUX CITY  FOG       48  48 100 CALM      30.05R VSB 1/4
TEKAMAH        FOG       53  52  96 CALM      30.06R VSB<1/4
COLUMBUS       CLOUDY    43  41  93 N3        30.08R VSB<1/4
ALBION         SUNNY     40  38  93 CALM      30.07R
OMAHA EPPLEY   CLOUDY    61  58  90 N5        30.05R FOG
OFFUTT AFB     CLOUDY    61  61 100 SW5       30.04R
MILLARD        CLOUDY    58  57  96 NW5       30.04R FOG
LINCOLN        FOG       54  53  97 CALM      30.08R VSB<1/4
NEBRASKA CITY  SUNNY     60  60 100 SW6       30.06R FOG
BEATRICE       FOG       54  54 100 CALM      30.07R VSB<1/4
FALLS CITY     CLOUDY    62  60  93 SW10      30.05R

...NORTHERN KANSAS...

CITY           SKY/WX    TMP DP  RH WIND       PRES   REMARKS
GOODLAND       PTCLDY    46  43  89 W5        30.15R
HILL CITY      FOG       54  54 100 CALM      30.10R VSB 1/4
NORTON         FOG       50  48  93 W3        30.09R VSB 0
PHILLIPSBURG   FOG       52  52 100 CALM      30.10R VSB 0
SMITH CENTER   FOG       52  52 100 CALM      30.10R VSB 0
BELOIT         CLOUDY    54  54 100 CALM      30.08R VSB 0
HAYS           CLOUDY    57  52  82 E3        30.10R VSB 1/4
RUSSELL        CLOUDY    57  56  96 CALM      30.08R FOG
CONCORDIA      CLOUDY    61  60  97 CALM      30.08R FOG
SALINA         CLOUDY    62  59  90 S6        30.08R
TOPEKA         CLOUDY    63  60  90 SW8       30.08R



USA.gov is the U.S. government's official web portal to all federal, state and local government web resources and services.